KA9CBS Weather Reports


time (UTC)temp
F
wind
direction
speed
knots
gust
knots
rain 1hr
in
rain 24hr
in
rain mn
in
humidity
%
barometer
mb
20260504160419 74 290 9.6 18.2 0.00 0.00 0.00 57 1010.4
20260504150843 70 279 9.6 13.9 0.00 0.00 0.00 63 1010.2
20260504150340 70 317 10.4 15.6 0.00 0.00 0.00 64 1010.1
20260504141310 67 289 7.0 13.0 0.00 0.00 0.00 69 1010.7
20260504140806 66 310 7.0 11.3 0.00 0.00 0.00 72 1011.0
20260504140302 66 274 7.0 11.3 0.00 0.00 0.00 71 1011.0
20260504130731 63 248 6.1 7.8 0.00 0.00 0.00 75 1011.5
20260504130226 62 279 6.1 7.0 0.00 0.00 0.00 76 1011.3
20260504120151 60 205 2.6 2.6 0.00 0.00 0.00 77 1011.5
20260504110618 60 191 0.9 1.7 0.00 0.00 0.00 76 1011.3
20260504110114 61 193 0.9 1.7 0.00 0.00 0.00 76 1011.1
20260504100540 61 190 0.0 0.0 0.00 0.00 0.00 75 1011.2
20260504081933 58 161 1.7 1.7 0.00 0.00 0.00 80 1011.7
20260504081430 59 187 0.0 0.0 0.00 0.00 0.00 77 1011.5
20260504080926 59 136 0.0 0.9 0.00 0.00 0.00 77 1011.8
20260504080423 59 142 0.0 0.0 0.00 0.00 0.00 77 1011.6
20260504070350 63 280 6.1 13.0 0.00 0.00 0.00 67 1010.7
20260504050738 63 295 6.1 8.7 0.00 0.00 0.00 64 1011.1
20260504050235 63 277 7.0 11.3 0.00 0.00 0.00 64 1011.3
20260504045732 63 294 8.7 12.2 0.00 0.01 0.01 63 1011.0
20260504045227 62 285 6.1 11.3 0.00 0.01 0.01 64 1011.2
20260504044725 62 278 7.8 9.6 0.00 0.01 0.01 63 1011.6
20260504044223 62 307 7.8 9.6 0.00 0.01 0.01 63 1011.6
20260504043720 62 299 7.0 12.2 0.00 0.01 0.01 63 1011.7
20260504043216 62 290 5.2 13.0 0.00 0.01 0.01 62 1011.6
20260504042714 62 328 7.8 9.6 0.00 0.01 0.01 63 1011.6
20260504042210 62 291 5.2 7.0 0.00 0.01 0.01 63 1011.8
20260504041707 62 285 7.0 8.7 0.00 0.01 0.01 63 1011.6
20260504041202 62 293 7.8 9.6 0.00 0.01 0.01 61 1011.6
20260504040659 62 281 9.6 11.3 0.00 0.01 0.01 61 1011.6
20260504040156 62 269 7.8 9.6 0.00 0.01 0.01 61 1011.5
20260504035652 62 277 6.1 9.6 0.00 0.01 0.01 60 1011.8
20260504035150 62 264 7.0 7.8 0.00 0.01 0.01 60 1011.9
20260504034647 62 314 8.7 9.6 0.00 0.01 0.01 60 1011.9
20260504034144 62 319 7.0 9.6 0.00 0.01 0.01 59 1012.0
20260504033642 62 327 7.8 11.3 0.00 0.01 0.01 59 1011.9
20260504033139 62 266 8.7 9.6 0.00 0.01 0.01 58 1012.0
20260504032636 62 272 6.1 12.2 0.00 0.01 0.01 58 1012.0
20260504032133 62 261 4.3 8.7 0.00 0.01 0.01 57 1012.0
20260504031630 62 272 4.3 7.8 0.00 0.01 0.01 57 1012.1
20260504031126 62 280 5.2 7.0 0.00 0.01 0.01 57 1012.2
20260504030623 62 260 5.2 7.0 0.00 0.01 0.01 57 1012.5
20260504030120 62 225 4.3 7.0 0.00 0.01 0.01 57 1012.4
20260504025617 63 285 6.1 9.6 0.00 0.01 0.01 55 1012.3
20260504025113 62 270 7.0 7.8 0.00 0.01 0.01 56 1012.4
20260504024611 63 257 3.5 8.7 0.00 0.01 0.01 56 1012.4
20260504024107 63 260 5.2 9.6 0.00 0.01 0.01 55 1012.5
20260504023604 63 260 4.3 7.8 0.00 0.01 0.01 55 1012.3
20260504023059 63 253 4.3 7.0 0.00 0.01 0.01 55 1012.2
20260504022556 63 292 9.6 9.6 0.00 0.01 0.01 54 1012.3
20260504022052 63 263 6.1 7.8 0.00 0.01 0.01 54 1012.3
20260504021550 63 259 9.6 9.6 0.00 0.01 0.01 53 1012.3
20260504021047 63 254 4.3 6.1 0.00 0.01 0.01 55 1012.5
20260504020544 63 259 4.3 7.0 0.00 0.01 0.01 54 1012.3
20260504020040 63 281 6.1 7.8 0.00 0.01 0.01 53 1012.2
20260504015537 64 272 6.1 7.0 0.00 0.01 0.01 53 1012.3
20260504015032 63 250 4.3 7.8 0.00 0.01 0.01 53 1012.2
20260504014529 63 245 3.5 7.8 0.00 0.01 0.01 53 1012.2
20260504014026 63 266 3.5 6.1 0.00 0.01 0.01 53 1012.2
20260504013524 64 223 4.3 7.0 0.00 0.01 0.01 52 1012.2
20260504013020 64 286 6.1 7.8 0.00 0.01 0.01 52 1012.3
20260504012518 64 266 4.3 8.7 0.00 0.01 0.01 52 1012.2
20260504012016 64 245 5.2 8.7 0.00 0.01 0.01 52 1012.3
20260504011512 64 271 5.2 7.8 0.00 0.01 0.01 51 1012.3
20260504011008 65 238 4.3 7.8 0.00 0.01 0.01 50 1012.7
20260504010504 64 264 4.3 7.0 0.00 0.01 0.01 51 1012.3
20260504010000 65 259 4.3 7.0 0.00 0.01 0.01 51 1012.4
20260504005457 65 274 4.3 7.8 0.00 0.01 0.01 50 1012.5
20260504004954 65 297 5.2 7.0 0.00 0.01 0.01 49 1012.2
20260504004452 66 271 5.2 7.8 0.00 0.01 0.01 49 1012.4
20260504003949 66 280 7.0 8.7 0.00 0.01 0.01 48 1012.7
20260504003445 66 263 4.3 6.1 0.00 0.01 0.01 48 1012.5
20260504002942 66 268 5.2 7.0 0.00 0.01 0.01 48 1012.6
20260504002439 67 291 7.0 8.7 0.00 0.01 0.01 47 1012.6
20260504001936 67 293 8.7 9.6 0.00 0.01 0.01 45 1012.5
20260504001433 67 286 12.2 14.8 0.00 0.01 0.01 45 1012.8
20260504000930 68 307 8.7 12.2 0.00 0.01 0.01 45 1012.7
20260504000427 68 274 9.6 15.6 0.00 0.01 0.01 45 1012.6
20260503235925 68 313 12.2 14.8 0.00 0.01 0.01 45 1012.4
20260503235422 68 296 4.3 8.7 0.00 0.01 0.01 46 1012.4
20260503234920 68 280 10.4 13.0 0.00 0.01 0.01 44 1012.6
20260503234417 68 327 8.7 9.6 0.00 0.01 0.01 45 1012.6
20260503233915 68 283 6.1 15.6 0.00 0.01 0.01 44 1012.7
20260503233411 68 289 6.1 12.2 0.00 0.01 0.01 44 1012.5
20260503232908 68 279 6.1 13.0 0.00 0.01 0.01 45 1012.6
20260503232405 68 304 11.3 19.1 0.00 0.01 0.01 43 1012.5
20260503231903 68 308 10.4 12.2 0.00 0.01 0.01 43 1012.5
20260503231400 68 288 10.4 14.8 0.00 0.01 0.01 43 1012.6
20260503230855 68 315 20.0 21.7 0.00 0.01 0.01 42 1012.4
20260503230352 69 304 13.0 20.0 0.00 0.01 0.01 43 1012.4
20260503225850 68 277 9.6 13.0 0.00 0.01 0.01 44 1012.5
20260503225346 68 301 13.0 20.0 0.00 0.01 0.01 43 1012.6
20260503224842 68 265 9.6 13.9 0.00 0.01 0.01 45 1012.7
20260503224340 68 313 14.8 20.9 0.00 0.01 0.01 44 1012.6
20260503223837 68 261 7.8 13.9 0.00 0.01 0.01 45 1012.6
20260503223334 69 287 13.0 15.6 0.00 0.01 0.01 44 1013.0
20260503222830 69 295 9.6 18.2 0.00 0.01 0.01 44 1013.0
20260503222329 69 264 7.8 13.9 0.00 0.01 0.01 45 1012.7
20260503221827 69 257 7.0 11.3 0.00 0.01 0.01 46 1013.0
20260503221326 69 307 11.3 14.8 0.00 0.01 0.01 44 1012.8
20260503220821 68 292 7.8 14.8 0.00 0.01 0.01 46 1012.9
20260503220318 68 272 13.0 15.6 0.00 0.01 0.01 43 1013.2
20260503215814 69 299 19.1 23.5 0.00 0.01 0.01 43 1012.9
20260503215312 69 250 7.0 13.9 0.00 0.01 0.01 46 1013.1
20260503214810 69 264 6.1 9.6 0.00 0.01 0.01 48 1013.0
20260503214306 68 284 11.3 15.6 0.00 0.01 0.01 46 1013.0
20260503213758 68 275 14.8 20.9 0.00 0.01 0.01 44 1013.2
20260503213255 68 303 12.2 20.0 0.00 0.01 0.01 44 1013.3
20260503212752 68 318 12.2 13.9 0.00 0.01 0.01 44 1013.6
20260503212249 68 299 13.0 17.4 0.00 0.01 0.01 43 1013.7
20260503211741 68 296 12.2 20.0 0.00 0.01 0.01 46 1013.8
20260503211238 68 300 11.3 13.0 0.00 0.01 0.01 45 1013.9
20260503210733 68 283 9.6 17.4 0.00 0.01 0.01 44 1014.1
20260503210230 68 267 13.9 19.1 0.00 0.01 0.01 44 1014.1
20260503205726 67 308 13.9 17.4 0.00 0.01 0.01 43 1014.5
20260503205222 67 272 12.2 20.0 0.00 0.01 0.01 44 1014.3
20260503204719 67 273 16.5 22.6 0.00 0.01 0.01 44 1014.6
20260503204217 68 275 8.7 14.8 0.00 0.01 0.01 49 1014.7
20260503203714 67 273 14.8 20.9 0.00 0.01 0.01 47 1014.8
20260503203211 67 289 15.6 20.0 0.00 0.01 0.01 46 1014.9
20260503202708 68 291 16.5 20.0 0.00 0.01 0.01 45 1015.3
20260503202206 67 307 9.6 13.0 0.00 0.01 0.01 48 1015.4
20260503201704 67 269 11.3 15.6 0.00 0.01 0.01 48 1015.1
20260503201201 67 283 11.3 18.2 0.00 0.01 0.01 47 1015.5
20260503200657 66 299 13.9 19.1 0.00 0.01 0.01 47 1015.8
20260503200153 66 285 9.6 20.0 0.00 0.01 0.01 49 1016.0
20260503195645 66 295 13.0 20.0 0.00 0.01 0.01 48 1016.0
20260503195142 67 267 7.8 13.9 0.00 0.01 0.01 49 1016.3
20260503194639 66 281 9.6 19.1 0.00 0.01 0.01 49 1016.3
20260503194134 67 306 10.4 17.4 0.00 0.01 0.01 49 1016.5
20260503193631 66 307 8.7 17.4 0.00 0.01 0.01 50 1016.6
20260503193126 66 343 7.0 11.3 0.00 0.01 0.01 51 1016.9
20260503192622 66 281 16.5 21.7 0.00 0.01 0.01 47 1017.2
20260503192118 66 312 5.2 15.6 0.00 0.01 0.01 51 1017.2
20260503191610 66 342 9.6 15.6 0.00 0.01 0.01 50 1017.5
20260503191106 65 280 8.7 15.6 0.00 0.01 0.01 48 1017.3
20260503190604 65 300 13.0 20.9 0.00 0.01 0.01 48 1017.3
20260503185557 65 293 11.3 17.4 0.00 0.01 0.01 50 1017.5
20260503185057 65 310 6.1 12.2 0.00 0.01 0.01 52 1017.7
20260503184552 64 256 9.6 13.9 0.00 0.01 0.01 50 1017.9
20260503184049 64 291 13.9 15.6 0.00 0.01 0.01 51 1018.1
20260503183546 65 285 6.1 14.8 0.00 0.01 0.01 51 1018.1
20260503183043 64 329 9.6 12.2 0.00 0.01 0.01 50 1018.4
20260503182541 63 306 11.3 20.0 0.00 0.01 0.01 51 1018.2
20260503182039 64 294 13.0 19.1 0.00 0.01 0.01 52 1018.6
20260503181530 63 256 13.0 17.4 0.00 0.01 0.01 51 1018.6
20260503181026 64 280 11.3 22.6 0.00 0.01 0.01 53 1018.6
20260503180524 63 327 8.7 15.6 0.00 0.01 0.01 52 1018.9
20260503180021 63 315 13.9 17.4 0.00 0.01 0.01 51 1018.9
20260503175518 62 328 9.6 18.2 0.00 0.01 0.01 52 1019.1
20260503175015 63 287 10.4 17.4 0.00 0.01 0.01 52 1019.4
20260503174513 63 264 12.2 15.6 0.00 0.01 0.01 52 1019.2
20260503174009 63 352 11.3 19.1 0.00 0.01 0.01 53 1019.3
20260503173503 63 295 6.1 8.7 0.00 0.01 0.01 56 1019.3
20260503173000 62 256 8.7 18.2 0.00 0.01 0.01 54 1019.3
20260503172458 62 243 7.8 18.2 0.00 0.01 0.01 57 1019.5
20260503171955 62 285 7.8 15.6 0.00 0.01 0.01 54 1019.6
20260503171451 62 276 9.6 12.2 0.00 0.01 0.01 54 1019.6
20260503170949 62 279 19.1 21.7 0.00 0.01 0.01 52 1019.9
20260503170445 61 301 11.3 15.6 0.00 0.01 0.01 54 1019.8